Overview Statistics Trail Chart Weather Telemetry Raw packets
 

This is the latest recevied weather packets stored in our database for station/object KE8RXN. If no packets are shown the sender has not sent any weather packets the latest 10 day(s).

<< 1 2 3 4 5 6 7 >>
Time Temp. Humidity Pressure Rain* Wind** Luminosity Snow
1788555198 24.44° C 85% 1017.4 hPa 0 mm - 239 W/m² -
1788554895 25° C 85% 1017.5 hPa 0 mm - 236 W/m² -
1788554591 25° C 85% 1017.7 hPa 0 mm - 242 W/m² -
1788554287 25° C 85% 1017.8 hPa 0 mm - 269 W/m² -
1788553982 25° C 86% 1017.8 hPa 0 mm - 292 W/m² -
1788553678 24.44° C 86% 1017.8 hPa 0 mm - 280 W/m² -
1788553374 24.44° C 87% 1018 hPa 0 mm - 282 W/m² -
1788553064 24.44° C 86% 1017.8 hPa 0 mm - 290 W/m² -
1788552764 24.44° C 86% 1017.9 hPa 0 mm - 282 W/m² -
1788552458 24.44° C 86% 1018 hPa 0 mm - 327 W/m² -
1788552153 25° C 87% 1017.8 hPa 0 mm - 402 W/m² -
1788551852 24.44° C 87% 1017.9 hPa 0 mm - 324 W/m² -
1788551551 24.44° C 88% 1017.8 hPa 0 mm - 333 W/m² -
1788551246 23.89° C 89% 1018 hPa 0 mm - 320 W/m² -
1788550945 23.89° C 89% 1018 hPa 0 mm - 300 W/m² -
1788550641 24.44° C 88% 1018.1 hPa 0 mm - 284 W/m² -
1788550336 25° C 85% 1018.4 hPa 0 mm - 304 W/m² -
1788550031 25° C 85% 1018.4 hPa 0 mm - 325 W/m² -
1788549726 24.44° C 86% 1018.4 hPa 0 mm - 313 W/m² -
1788549423 24.44° C 86% 1018.5 hPa 0 mm - 327 W/m² -
1788549119 24.44° C 88% 1018.4 hPa 0 mm - 323 W/m² -
1788548815 24.44° C 89% 1018.6 hPa 0 mm - 339 W/m² -
1788548511 23.89° C 90% 1018.5 hPa 0 mm - 326 W/m² -
1788548208 23.89° C 90% 1018.5 hPa 0 mm - 313 W/m² -
1788547908 23.33° C 91% 1018.4 hPa 0 mm - 324 W/m² -

* Rain latest hour (hover to see other rain measurements)
** Current wind speed in m/s (hover to see current wind gust speed)